AirNav   ATP
 
 1570 users online  

TE95 Deiterich Ranch Airport
Bertram, Texas, USA

GOING TO BERTRAM?


FAA INFORMATION EFFECTIVE 19 JULY 2018

Location

FAA Identifier: TE95
Lat/Long: 30-45-12.0000N / 098-08-48.0000W
30-45.200000N / 098-08.800000W
30.7533333 / -98.1466667
(estimated)
Elevation: 1385 ft. / 422 m (estimated)
Variation: 06E (2000)
From city: 5 miles W of BERTRAM, TX
Time zone: UTC -5 (UTC -6 during Standard Time)
Zip code: 78605

Airport Operations

Airport use: Private use. Permission required prior to landing
Activation date: 11/2000
Control tower: no
ARTCC: HOUSTON CENTER
FSS: SAN ANGELO FLIGHT SERVICE STATION
Attendance: UNATNDD
Wind indicator: yes
Segmented circle: no

Airport Communications

WX ASOS at BMQ (5 nm W): 119.925 (512-756-7277)
WX AWOS-3 at DZB (17 nm SW): 119.775 (830-598-2059)
WX ASOS at RYW (18 nm SE): 119.375 (512-267-1365)

Nearby radio navigation aids

VOR radial/distance  VOR name  Freq  Var
GRKr222/24.0GRAY VOR/DME111.8004E
AGJr176/25.9GOOCH SPRINGS VORTAC112.5005E
LLOr086/33.1LLANO VORTAC108.2008E
CWKr299/39.0CENTEX VORTAC112.8006E

 
NDB name  Hdg/Dist  Freq  Var  ID
HOOD218/31.834707EHLR .... .-.. .-.

Airport Services

Runway Information

Runway 17/35

Dimensions: 1400 x 22 ft. / 427 x 7 m
Surface: turf, in poor condition
RUNWAY 17  RUNWAY 35
Traffic pattern: leftleft

Airport Ownership and Management from official FAA records

Ownership: Privately-owned
Owner: CHARLES F. DEITERICH
123 BAKER ROAD
BERTRAM, TX 78605
Phone 512-756-6999
Manager: CHARLES F. DEITERICH
123 BAKER ROAD
BERTRAM, TX 78605
Phone 512-756-6999

Airport Operational Statistics

Aircraft based on the field: 1
Single engine airplanes: 1
    

Additional Remarks

LIVESTOCK ON & INVOF ARPT.

Instrument Procedures

There are no published instrument procedures at TE95.

Some nearby airports with instrument procedures:

KBMQ - Burnet Municipal Airport-Kate Craddock Field (5 nm W)
KRYW - Lago Vista TX - Rusty Allen Airport (18 nm SE)
KLZZ - Lampasas Airport (21 nm N)
KGTU - Georgetown Municipal Airport (25 nm E)
KGRK - Robert Gray Army Airfield (25 nm NE)
 
Loc | Ops | Rwys | IFR | FBO | Links
Com | Nav | Svcs | Stats | Notes


 
Area around TE95 (Deiterich Ranch Airport)
 
Road maps at: MapQuest Bing Google
 
Aerial photo
No photo
 
Sectional chart

 
Airport distance calculator
Flying to Deiterich Ranch Airport? Find the distance to fly.

From to TE95

Sunrise and sunset
Times for 19-Jul-2018
 Local
(UTC-5)
 Zulu
(UTC)
Morning civil twilight06:1611:16
Sunrise06:4311:43
Sunset20:3401:34
Evening civil twilight21:0102:01

Current date and time
Zulu (UTC)  19-Jul-2018 20:14:50
Local (UTC-5)  19-Jul-2018 15:14:50
 
METAR
KBMQ 
5nm W 
191953Z AUTO 15009KT 10SM CLR 39/13 A2993 RMK AO2 SLP112 T03940128 $
KDZB 
17nm SW 
191955Z AUTO 17008KT 140V200 10SM CLR 40/13 A2990 RMK AO2 T03960134
KRYW 
18nm SE 
191955Z AUTO 14007KT 10SM CLR 38/17 A2993 RMK AO2 T03800172
TAF
KGRK 
25nm NE 
191600Z 1916/2022 20012KT 9999 SCT100 QNH2989INS BECMG 2002/2003 20006KT 9999 SKC QNH2990INS BECMG 2014/2015 17012KT 9999 FEW120 QNH2992INS TX41/1921Z TN24/2012Z
NOTAMs
Click for the latest NOTAMs
NOTAMs are issued by the DoD/FAA and will open in a separate window not controlled by AirNav.

 

 
 

Would you like to see your business listed on this page?

 If your business provides an interesting product or service to pilots, flight crews, aircraft, or users of the Deiterich Ranch Airport, you should consider listing it here.  To start the listing process, click on the button below
 
Add a business
 

Other Pages about Deiterich Ranch Airport

Update a link
 
Copyright © AirNav, LLC. All rights reserved. Privacy Policy  Contact